This is the latest recevied weather packets stored in our database for station/object MEGLR. If no packets are shown the sender has not sent any weather packets the latest 1 day(s).
| Time | Temp. | Humidity | Pressure | Rain* | Wind** | Luminosity | Snow |
|---|---|---|---|---|---|---|---|
| 1836274377 | 13.89° C | 92% | 0 hPa | - | 3.58 m/s, 230° | - | - |
| 1836274226 | 14.44° C | 90% | 0 hPa | - | 3.13 m/s, 235° | - | - |
| 1778047204 | 11.67° C | 89% | 0 hPa | - | 2.24 m/s, 265° | - | - |
| 1778046602 | 11.67° C | 89% | 0 hPa | - | 1.79 m/s, 250° | - | - |
| 1778046003 | 11.67° C | 89% | 0 hPa | - | 2.68 m/s, 290° | - | - |
| 1778045403 | 11.67° C | 89% | 0 hPa | - | 2.24 m/s, 235° | - | - |
| 1778044803 | 11.67° C | 90% | 0 hPa | - | 2.24 m/s, 270° | - | - |
| 1778044203 | 11.67° C | 89% | 0 hPa | - | 1.79 m/s, 280° | - | - |
| 1778043604 | 12.22° C | 90% | 0 hPa | - | 1.34 m/s, 265° | - | - |
| 1778043003 | 11.67° C | 91% | 0 hPa | - | 1.34 m/s, 265° | - | - |
| 1778042402 | 12.22° C | 91% | 0 hPa | - | 2.68 m/s, 280° | - | - |
| 1778041803 | 11.67° C | 91% | 0 hPa | - | 2.24 m/s, 280° | - | - |
| 1778041203 | 11.67° C | 92% | 0 hPa | - | 2.68 m/s, 290° | - | - |
| 1778040603 | 11.67° C | 94% | 0 hPa | - | 2.68 m/s, 295° | - | - |
| 1778040004 | 11.67° C | 94% | 0 hPa | - | 3.58 m/s, 295° | - | - |
| 1778039403 | 11.67° C | 94% | 0 hPa | - | 3.13 m/s, 290° | - | - |
| 1778038803 | 11.67° C | 94% | 0 hPa | - | 3.58 m/s, 295° | - | - |
| 1778038203 | 11.67° C | 93% | 0 hPa | - | 3.58 m/s, 295° | - | - |
| 1778037603 | 11.67° C | 94% | 0 hPa | - | 3.58 m/s, 295° | - | - |
| 1778037003 | 11.67° C | 95% | 0 hPa | - | 4.02 m/s, 295° | - | - |
| 1778036404 | 11.67° C | 95% | 0 hPa | - | 3.58 m/s, 295° | - | - |
| 1778035803 | 11.67° C | 95% | 0 hPa | - | 4.02 m/s, 300° | - | - |
| 1778035204 | 11.67° C | 95% | 0 hPa | - | 3.13 m/s, 295° | - | - |
| 1778034604 | 11.67° C | 94% | 0 hPa | - | 3.58 m/s, 295° | - | - |
| 1778034002 | 11.67° C | 93% | 0 hPa | - | 3.58 m/s, 300° | - | - |
* Rain since midnight (hover to see other rain measurements)
** Current wind speed in m/s (hover to see current wind gust speed)